CW4150 Weather Reports


time (UTC)temp
C
wind
direction
speed
KPH
gust
KPH
rain 1hr
cm
rain 24hr
cm
rain mn
cm
humidity
%
barometer
mb
20260506224520 10 219 0.0 4.8 0.36 1.22 0.25 91 1010.6
20260506224006 10 233 0.0 4.8 0.36 1.17 0.20 91 1010.6
20260506223507 10 231 1.6 6.4 0.41 1.14 0.18 91 1010.6
20260506223011 10 248 4.8 14.5 0.53 0.97 0.00 91 1010.0
20260506223006 10 200 3.2 6.4 0.43 1.12 0.15 91 1010.5
20260506222504 10 229 3.2 6.4 0.46 1.07 0.10 91 1010.5
20260506222006 10 238 1.6 11.3 0.51 1.04 0.08 91 1010.4
20260506221509 10 242 1.6 11.3 0.51 1.02 0.08 91 1010.4
20260506221003 10 241 0.0 8.0 0.51 0.99 0.03 91 1010.3
20260506220503 10 235 3.2 8.0 0.53 0.97 0.00 91 1010.2
20260506220017 10 216 1.6 14.5 0.53 0.94 0.00 91 1010.2
20260506220011 11 244 6.4 16.1 0.51 0.71 0.71 91 1009.9
20260506215505 10 217 3.2 14.5 0.53 0.91 0.91 91 1010.2
20260506215006 10 227 1.6 8.0 0.56 0.89 0.89 91 1010.2
20260506214520 10 265 3.2 8.0 0.58 0.84 0.84 91 1010.3
20260506214009 10 233 1.6 8.0 0.56 0.79 0.79 91 1010.2
20260506213507 10 239 3.2 9.7 0.51 0.74 0.74 91 1010.1
20260506213024 10 266 3.2 11.3 0.46 0.66 0.66 90 1010.1
20260506212507 11 226 1.6 11.3 0.41 0.58 0.58 91 1010.0
20260506212011 11 237 4.8 12.9 0.36 0.53 0.53 90 1009.9
20260506211530 11 250 4.8 14.5 0.36 0.51 0.51 91 1009.9
20260506211003 11 226 4.8 14.5 0.36 0.46 0.46 90 1009.7
20260506210504 11 230 1.6 6.4 0.33 0.43 0.43 90 1009.6
20260506210011 11 232 6.4 14.5 0.15 0.23 0.20 90 1009.3
20260506210009 11 219 1.6 8.0 0.30 0.41 0.41 90 1009.5
20260506205504 11 210 3.2 8.0 0.28 0.38 0.36 90 1009.7
20260506205004 11 252 3.2 6.4 0.23 0.33 0.30 90 1009.6
20260506204518 11 224 1.6 11.3 0.18 0.28 0.25 89 1009.6
20260506204008 11 218 3.2 11.3 0.18 0.28 0.23 89 1009.6
20260506203508 11 253 4.8 11.3 0.18 0.28 0.20 89 1009.6
20260506203021 11 221 4.8 14.5 0.15 0.28 0.18 89 1009.6
20260506203011 11 227 9.7 16.1 0.08 0.13 0.10 90 1009.1
20260506202508 11 213 4.8 14.5 0.13 0.28 0.18 89 1009.6
20260506202008 11 238 6.4 16.1 0.10 0.28 0.15 89 1009.6
20260506201530 11 148 8.0 16.1 0.10 0.28 0.13 89 1009.6
20260506201008 11 248 6.4 16.1 0.08 0.28 0.10 89 1009.5
20260506200509 11 251 4.8 16.1 0.08 0.25 0.08 89 1009.5
20260506200025 11 248 4.8 9.7 0.08 0.25 0.08 89 1009.5
20260506200010 12 229 9.7 19.3 0.05 0.23 0.05 89 1008.7
20260506195509 11 249 3.2 11.3 0.05 0.23 0.08 89 1009.5
20260506195003 11 245 3.2 11.3 0.05 0.23 0.08 89 1009.4
20260506194510 11 234 3.2 14.5 0.03 0.23 0.05 88 1009.3
20260506194009 11 207 4.8 14.5 0.03 0.23 0.05 88 1009.2
20260506193504 11 248 4.8 11.3 0.00 0.20 0.03 88 1009.1
20260506193023 11 237 3.2 11.3 0.00 0.20 0.03 88 1009.0
20260506193010 12 212 3.2 19.3 0.00 0.18 0.03 87 1008.3
20260506192508 11 224 3.2 9.7 0.00 0.20 0.03 88 1008.9
20260506192010 12 213 3.2 9.7 0.00 0.20 0.03 88 1008.9
20260506191524 12 229 3.2 9.7 0.00 0.18 0.00 88 1008.9
20260506191007 12 243 3.2 11.3 0.00 0.18 0.00 87 1008.9
20260506190511 12 208 1.6 14.5 0.00 0.20 0.00 87 1008.8
20260506190028 12 210 4.8 14.5 0.00 0.20 0.00 87 1008.8
20260506185510 12 244 1.6 16.1 0.00 0.20 0.00 86 1008.7
20260506185011 12 214 4.8 16.1 0.00 0.20 0.00 86 1008.7
20260506184527 12 221 6.4 16.1 0.00 0.20 0.00 86 1008.7
20260506184009 12 219 3.2 14.5 0.00 0.20 0.00 86 1008.6
20260506183510 12 251 3.2 11.3 0.00 0.20 0.00 85 1008.5
20260506183013 12 226 4.8 11.3 0.00 0.20 0.00 85 1008.4
20260506182504 12 249 1.6 9.7 0.00 0.20 0.00 85 1008.3
20260506182006 12 213 3.2 11.3 0.00 0.20 0.00 85 1008.3
20260506181519 12 239 1.6 11.3 0.00 0.20 0.00 85 1008.3
20260506181008 12 127 1.6 6.4 0.00 0.20 0.00 85 1008.3
20260506180508 12 213 0.0 3.2 0.00 0.20 0.00 85 1008.3
20260506180025 12 219 0.0 1.6 0.00 0.20 0.00 86 1008.2
20260506180014 13 235 3.2 4.8 0.00 0.23 0.03 86 1007.3
20260506175512 12 219 0.0 3.2 0.00 0.20 0.00 86 1008.1
20260506175008 12 219 0.0 4.8 0.00 0.20 0.00 85 1008.0
20260506174528 12 228 1.6 4.8 0.00 0.20 0.00 85 1007.9
20260506174010 12 212 0.0 3.2 0.00 0.20 0.00 86 1007.8
20260506173510 12 231 1.6 8.0 0.00 0.20 0.00 85 1007.8
20260506173028 12 245 1.6 8.0 0.00 0.20 0.00 85 1007.7
20260506173014 13 221 3.2 11.3 0.00 0.23 0.03 86 1006.9
20260506172509 13 239 1.6 8.0 0.00 0.20 0.00 85 1007.6
20260506172009 13 124 1.6 4.8 0.00 0.20 0.00 85 1007.5
20260506171539 13 110 1.6 6.4 0.00 0.20 0.00 85 1007.5
20260506171005 13 231 1.6 6.4 0.00 0.20 0.00 85 1007.4
20260506170511 13 224 1.6 9.7 0.00 0.20 0.00 85 1007.5
20260506170020 13 217 3.2 9.7 0.00 0.20 0.00 84 1007.4
20260506170014 13 241 3.2 11.3 0.00 0.23 0.03 85 1006.9
20260506165508 13 270 1.6 8.0 0.00 0.20 0.00 85 1007.4
20260506165009 13 255 3.2 8.0 0.00 0.20 0.00 84 1007.3
20260506164524 13 264 0.0 4.8 0.00 0.20 0.00 85 1007.4
20260506164010 13 281 0.0 6.4 0.00 0.20 0.00 85 1007.4
20260506163510 13 239 1.6 8.0 0.00 0.20 0.00 85 1007.4
20260506163027 13 13 0.0 8.0 0.00 0.20 0.00 85 1007.4
20260506163013 13 82 3.2 19.3 0.00 0.23 0.03 84 1007.0
20260506162509 13 230 1.6 6.4 0.00 0.20 0.00 85 1007.4
20260506162007 13 89 1.6 6.4 0.00 0.20 0.00 85 1007.4
20260506161510 13 252 0.0 14.5 0.00 0.20 0.00 85 1007.4
20260506161005 13 120 1.6 14.5 0.00 0.20 0.00 84 1007.4
20260506160507 13 206 1.6 16.1 0.00 0.20 0.00 84 1007.4
20260506160016 13 204 4.8 16.1 0.00 0.20 0.00 83 1007.5
20260506160013 15 238 9.7 24.1 0.00 0.23 0.03 77 1007.2
20260506155508 13 257 3.2 9.7 0.00 0.20 0.00 83 1007.5
20260506155007 13 228 4.8 9.7 0.00 0.20 0.00 81 1007.5
20260506154521 14 224 1.6 9.7 0.00 0.20 0.00 81 1007.6
20260506154009 14 273 3.2 14.5 0.00 0.20 0.00 80 1007.6
20260506153502 14 266 6.4 16.1 0.00 0.20 0.00 78 1007.5
20260506153004 15 230 3.2 16.1 0.00 0.20 0.00 77 1007.5
20260506152504 15 60 4.8 14.5 0.00 0.20 0.00 76 1007.4
20260506152004 15 237 1.6 14.5 0.00 0.20 0.00 77 1007.3
20260506151508 16 247 1.6 6.4 0.00 0.20 0.00 76 1007.2
20260506151004 16 67 0.0 4.8 0.00 0.23 0.00 76 1007.2
20260506150510 16 231 1.6 6.4 0.00 0.23 0.00 75 1007.1
20260506150013 16 224 1.6 4.8 0.00 0.23 0.03 69 1006.6
20260506150010 16 259 1.6 8.0 0.00 0.23 0.00 74 1007.1
20260506145506 16 217 3.2 8.0 0.00 0.23 0.00 72 1007.1
20260506145007 16 209 1.6 6.4 0.00 0.23 0.00 74 1007.0
20260506144516 16 229 1.6 4.8 0.00 0.23 0.00 72 1006.9
20260506144009 16 258 1.6 4.8 0.00 0.23 0.00 71 1006.9
20260506143507 16 216 1.6 4.8 0.00 0.23 0.00 68 1006.8
20260506143024 16 233 1.6 3.2 0.00 0.23 0.00 67 1006.8
20260506143013 16 235 3.2 8.0 0.00 0.23 0.03 68 1006.6
20260506142509 16 217 0.0 6.4 0.00 0.23 0.00 67 1006.8
20260506142010 16 231 3.2 6.4 0.00 0.23 0.00 67 1006.7
20260506141504 16 227 1.6 3.2 0.00 0.23 0.00 67 1006.8
20260506141004 16 233 0.0 4.8 0.00 0.23 0.00 69 1006.8
20260506140504 16 239 1.6 4.8 0.00 0.23 0.00 68 1006.7
20260506140016 16 228 0.0 3.2 0.00 0.23 0.00 67 1006.7
20260506140012 16 246 0.0 4.8 0.00 0.23 0.03 66 1006.6
20260506135506 16 220 1.6 3.2 0.00 0.23 0.00 67 1006.7
20260506135005 16 250 1.6 3.2 0.00 0.23 0.00 67 1006.8
20260506134514 16 238 1.6 3.2 0.00 0.23 0.00 67 1006.8
20260506134007 16 234 0.0 3.2 0.00 0.23 0.00 67 1006.8
20260506133506 16 236 0.0 3.2 0.00 0.23 0.00 66 1006.8
20260506133027 16 233 0.0 3.2 0.00 0.23 0.00 66 1006.8
20260506133012 18 204 4.8 11.3 0.00 0.23 0.03 64 1006.7
20260506132507 16 162 0.0 6.4 0.00 0.23 0.00 67 1006.8
20260506132007 17 216 3.2 6.4 0.00 0.23 0.00 65 1006.8
20260506131521 17 219 3.2 6.4 0.00 0.23 0.00 65 1006.8
20260506131007 17 226 1.6 6.4 0.00 0.23 0.00 65 1006.7
20260506130508 17 226 1.6 6.4 0.00 0.23 0.00 64 1006.7
20260506130024 17 206 1.6 12.9 0.00 0.23 0.00 63 1006.7
20260506125505 18 233 4.8 12.9 0.00 0.23 0.00 62 1006.7
20260506125005 18 238 1.6 6.4 0.00 0.23 0.00 61 1006.7
20260506124508 18 238 4.8 9.7 0.00 0.23 0.00 62 1006.7
20260506124005 18 212 4.8 9.7 0.00 0.23 0.00 62 1006.7
20260506123506 18 264 1.6 12.9 0.00 0.23 0.00 60 1006.7
20260506123016 18 240 3.2 12.9 0.00 0.23 0.00 61 1006.7
20260506123012 19 78 6.4 14.5 0.00 0.23 0.03 61 1006.8
20260506122508 18 248 4.8 12.9 0.00 0.23 0.00 61 1006.7
20260506122014 18 231 3.2 11.3 0.00 0.23 0.00 60 1006.7
20260506121518 18 62 3.2 11.3 0.00 0.23 0.00 60 1006.7
20260506121007 18 261 3.2 11.3 0.00 0.23 0.00 59 1006.6
20260506120508 19 229 6.4 16.1 0.00 0.23 0.00 60 1006.7
20260506120027 19 326 3.2 16.1 0.00 0.23 0.00 63 1006.6
20260506120012 18 359 4.8 16.1 0.00 0.23 0.03 66 1006.8
20260506115507 18 44 3.2 11.3 0.00 0.23 0.00 60 1006.6
20260506115009 18 34 3.2 11.3 0.00 0.23 0.00 62 1006.6
20260506114534 18 18 4.8 8.0 0.00 0.23 0.00 64 1006.6
20260506114003 18 243 3.2 9.7 0.00 0.23 0.00 63 1006.7
20260506113505 18 309 1.6 9.7 0.00 0.23 0.00 67 1006.8
20260506113011 18 262 3.2 11.3 0.00 0.23 0.00 64 1006.8
20260506112510 18 198 3.2 12.9 0.00 0.23 0.00 65 1006.9
20260506112007 17 235 3.2 12.9 0.00 0.23 0.00 66 1007.0
20260506111516 17 205 4.8 11.3 0.00 0.23 0.00 64 1007.1
20260506111010 17 262 4.8 11.3 0.00 0.23 0.00 68 1007.2
20260506110512 17 214 1.6 11.3 0.00 0.23 0.00 69 1007.2
20260506110021 16 243 4.8 9.7 0.00 0.23 0.00 68 1007.3
20260506110011 18 225 11.3 19.3 0.00 0.23 0.03 64 1007.5
20260506105513 17 238 3.2 9.7 0.00 0.23 0.00 67 1007.3
20260506105008 17 260 4.8 11.3 0.00 0.23 0.00 67 1007.4
20260506104525 17 207 3.2 11.3 0.00 0.23 0.00 66 1007.3
20260506104008 17 217 1.6 11.3 0.00 0.23 0.00 68 1007.3
20260506103514 17 265 4.8 11.3 0.00 0.23 0.00 66 1007.3
20260506103029 18 219 4.8 14.5 0.00 0.23 0.00 64 1007.3
20260506103011 17 2 4.8 16.1 0.00 0.23 0.03 70 1007.5
20260506102512 17 245 6.4 14.5 0.00 0.23 0.00 67 1007.3
20260506102007 17 250 3.2 9.7 0.00 0.23 0.00 68 1007.3
20260506101517 17 221 3.2 11.3 0.00 0.23 0.00 67 1007.3
20260506101007 17 297 3.2 11.3 0.00 0.23 0.00 67 1007.3
20260506100507 17 36 1.6 9.7 0.00 0.23 0.00 66 1007.3
20260506100024 17 293 1.6 9.7 0.00 0.23 0.00 70 1007.3
20260506100011 17 224 3.2 16.1 0.00 0.23 0.03 71 1007.5
20260506095508 17 225 3.2 16.1 0.00 0.23 0.00 67 1007.3
20260506095009 17 211 4.8 16.1 0.00 0.23 0.00 68 1007.3
20260506094522 17 266 3.2 16.1 0.00 0.23 0.00 68 1007.3
20260506094008 17 25 4.8 16.1 0.00 0.23 0.00 66 1007.3
20260506093509 17 238 4.8 9.7 0.00 0.23 0.00 68 1007.4
20260506093023 17 200 3.2 11.3 0.00 0.23 0.00 71 1007.3
20260506093011 16 231 8.0 16.1 0.00 0.23 0.03 73 1007.6
20260506092511 16 235 4.8 11.3 0.00 0.23 0.00 70 1007.4
20260506092010 16 226 6.4 14.5 0.00 0.23 0.00 71 1007.5
20260506091528 16 224 6.4 14.5 0.00 0.23 0.00 72 1007.5
20260506091010 16 268 3.2 12.9 0.00 0.23 0.00 73 1007.5
20260506090508 16 227 4.8 9.7 0.00 0.23 0.00 72 1007.5
20260506090016 16 214 3.2 11.3 0.00 0.23 0.00 74 1007.5
20260506090010 16 222 9.7 22.5 0.00 0.23 0.03 75 1007.6
20260506085506 16 236 6.4 12.9 0.00 0.23 0.00 72 1007.5
20260506085007 16 259 6.4 12.9 0.00 0.23 0.00 73 1007.5
20260506084518 16 244 4.8 11.3 0.00 0.23 0.00 73 1007.5
20260506084008 16 241 4.8 12.9 0.00 0.23 0.00 73 1007.5
20260506083508 16 224 4.8 12.9 0.00 0.23 0.00 74 1007.4
20260506083024 16 236 1.6 12.9 0.00 0.23 0.00 76 1007.3
20260506083015 15 239 8.0 19.3 0.00 0.23 0.03 81 1007.2
20260506082509 16 240 4.8 12.9 0.00 0.23 0.00 77 1007.4
20260506082009 16 219 6.4 12.9 0.00 0.23 0.00 78 1007.3
20260506081525 15 212 4.8 12.9 0.00 0.23 0.00 80 1007.2
20260506081010 15 221 4.8 12.9 0.00 0.23 0.00 80 1007.1
20260506080509 15 240 6.4 16.1 0.00 0.23 0.00 80 1007.1
20260506073507 14 193 3.2 8.0 0.00 0.23 0.00 82 1007.2
20260506073023 14 233 3.2 9.7 0.00 0.23 0.00 83 1007.2
20260506073015 15 241 6.4 11.3 0.00 0.23 0.03 83 1007.4
20260506072509 14 219 4.8 9.7 0.00 0.23 0.00 82 1007.2
20260506072008 14 238 1.6 6.4 0.00 0.23 0.00 83 1007.2
20260506071505 14 3 1.6 6.4 0.00 0.23 0.00 83 1007.3
20260506071004 14 265 1.6 6.4 0.00 0.23 0.00 84 1007.3
20260506070508 14 184 3.2 6.4 0.00 0.23 0.00 83 1007.3
20260506062508 14 82 0.0 1.6 0.00 0.23 0.00 83 1007.3
20260506062007 14 128 0.0 1.6 0.00 0.23 0.00 83 1007.4
20260506061515 15 127 0.0 1.6 0.00 0.23 0.00 84 1007.3
20260506061004 14 138 0.0 3.2 0.00 0.23 0.00 86 1007.3
20260506060505 13 138 0.0 3.2 0.00 0.23 0.00 87 1007.3
20260506051008 10 218 0.0 0.0 0.00 0.23 0.00 93 1007.7
20260506050505 9 218 0.0 0.0 0.00 0.23 0.00 93 1007.6
20260506045004 8 218 0.0 0.0 0.00 0.23 0.00 93 1007.5
20260506044515 8 218 0.0 1.6 0.00 0.23 0.00 93 1007.5
20260506044003 8 218 0.0 1.6 0.00 0.23 0.00 93 1007.5
20260506043505 8 218 0.0 0.0 0.00 0.23 0.00 92 1007.5
20260506043015 8 218 0.0 0.0 0.00 0.23 0.00 92 1007.5
20260506042507 8 218 0.0 0.0 0.00 0.23 0.00 92 1007.5
20260506042007 8 218 0.0 0.0 0.00 0.23 0.00 93 1007.5
20260506041519 8 218 0.0 0.0 0.00 0.20 0.00 93 1007.4
20260506041007 8 218 0.0 0.0 0.00 0.20 0.00 93 1007.4
20260506040513 8 218 0.0 1.6 0.00 0.20 0.00 93 1007.4
20260506040022 8 218 0.0 1.6 0.00 0.20 0.00 93 1007.5
20260506040013 9 219 0.0 0.0 0.00 0.23 0.00 92 1007.3
20260506035511 8 219 0.0 1.6 0.00 0.20 0.00 92 1007.5
20260506035011 8 219 0.0 0.0 0.00 0.20 0.00 92 1007.5
20260506034522 8 219 0.0 0.0 0.00 0.20 0.00 92 1007.5
20260506034010 8 219 0.0 0.0 0.00 0.20 0.00 92 1007.6
20260506033507 8 219 0.0 0.0 0.00 0.20 0.00 92 1007.6
20260506033013 10 219 0.0 0.0 0.00 0.23 0.00 93 1007.5
20260506032504 9 219 0.0 0.0 0.00 0.20 0.00 92 1007.6
20260506032004 9 219 0.0 0.0 0.00 0.20 0.00 92 1007.6
20260506031528 9 219 0.0 0.0 0.00 0.20 0.00 92 1007.7
20260506031008 10 219 0.0 0.0 0.00 0.20 0.00 92 1007.7
20260506030511 10 219 0.0 0.0 0.00 0.20 0.00 92 1007.8
20260506030042 10 219 0.0 0.0 0.00 0.20 0.00 92 1007.8
20260506030013 10 219 0.0 0.0 0.00 0.23 0.00 93 1007.8
20260506025510 10 219 0.0 0.0 0.00 0.20 0.00 92 1007.9
20260506025008 10 219 0.0 0.0 0.00 0.20 0.00 92 1008.0
20260506024529 10 219 0.0 0.0 0.00 0.20 0.00 92 1008.0
20260506024009 10 219 0.0 0.0 0.00 0.20 0.00 92 1008.1
20260506023511 10 219 0.0 0.0 0.00 0.20 0.00 92 1008.0
20260506023023 10 219 0.0 1.6 0.00 0.20 0.00 92 1008.0
20260506023012 10 219 0.0 0.0 0.00 0.23 0.00 92 1007.7
20260506022508 10 219 0.0 1.6 0.00 0.20 0.00 92 1008.1
20260506022009 10 219 0.0 0.0 0.00 0.20 0.00 92 1008.1
20260506021524 10 219 0.0 1.6 0.00 0.20 0.00 92 1008.1
20260506021005 10 219 0.0 1.6 0.00 0.20 0.00 92 1008.1
20260506020508 10 219 0.0 0.0 0.00 0.20 0.00 91 1008.0
20260506020017 10 219 0.0 0.0 0.00 0.20 0.00 91 1008.0
20260506015507 10 219 0.0 0.0 0.00 0.20 0.00 91 1008.0
20260506015010 10 219 0.0 0.0 0.00 0.20 0.00 91 1008.0
20260506014519 10 219 0.0 0.0 0.00 0.20 0.00 91 1008.0
20260506014008 10 219 0.0 0.0 0.00 0.20 0.00 91 1007.9
20260506013509 10 219 0.0 0.0 0.00 0.20 0.00 91 1008.0
20260506013024 10 219 0.0 0.0 0.00 0.20 0.00 91 1007.9
20260506012510 11 219 0.0 0.0 0.00 0.20 0.00 91 1008.1
20260506012013 11 219 0.0 0.0 0.00 0.20 0.00 91 1008.1
20260506011535 11 219 0.0 0.0 0.00 0.20 0.00 91 1008.1
20260506011015 11 219 0.0 1.6 0.00 0.20 0.00 91 1008.1
20260506010511 11 219 0.0 1.6 0.00 0.20 0.00 91 1008.2
20260506010024 11 219 0.0 0.0 0.00 0.20 0.00 91 1008.2
20260506010012 12 227 1.6 4.8 0.00 0.23 0.00 91 1008.2
20260506005509 11 219 0.0 1.6 0.00 0.20 0.00 91 1008.2
20260506005004 11 219 0.0 1.6 0.00 0.20 0.00 90 1008.3
20260506004533 11 219 0.0 3.2 0.00 0.20 0.00 90 1008.3
20260506004007 11 219 0.0 3.2 0.00 0.20 0.00 90 1008.4
20260506003510 12 227 0.0 4.8 0.00 0.20 0.00 90 1008.5
20260506003032 12 228 1.6 8.0 0.00 0.20 0.00 90 1008.4
20260506003012 12 241 4.8 11.3 0.00 0.23 0.00 91 1008.6
20260506002507 12 215 1.6 8.0 0.00 0.20 0.00 91 1008.5
20260506002014 12 219 1.6 4.8 0.00 0.20 0.00 91 1008.5
20260506001523 12 225 1.6 4.8 0.00 0.20 0.00 91 1008.6
20260506001009 12 231 1.6 6.4 0.00 0.20 0.00 91 1008.6
20260506000513 12 204 0.0 6.4 0.00 0.20 0.00 91 1008.6
20260506000027 12 236 3.2 6.4 0.00 0.20 0.00 91 1008.6
20260505235508 12 249 1.6 6.4 0.00 0.20 0.00 91 1008.6
20260505235011 12 221 3.2 8.0 0.00 0.20 0.00 91 1008.6
20260505234526 12 240 1.6 8.0 0.00 0.20 0.00 91 1008.7
20260505234009 12 245 0.0 3.2 0.00 0.20 0.00 91 1008.8
20260505233514 12 231 1.6 3.2 0.00 0.20 0.00 91 1008.8
20260505233023 12 229 0.0 3.2 0.00 0.20 0.00 91 1008.8
20260505233011 12 252 0.0 3.2 0.00 0.23 0.00 91 1008.7
20260505232506 12 233 0.0 3.2 0.00 0.20 0.00 91 1008.9
20260505232008 12 251 0.0 3.2 0.00 0.20 0.00 91 1008.8
20260505231502 12 223 0.0 1.6 0.00 0.20 0.00 91 1008.8
20260505231006 12 222 0.0 1.6 0.00 0.20 0.00 91 1008.8
20260505230503 12 233 0.0 1.6 0.00 0.20 0.00 91 1008.7
20260505230008 12 252 0.0 4.8 0.00 0.20 0.00 91 1008.8
20260505225503 12 214 1.6 4.8 0.00 0.20 0.00 91 1008.7
20260505225003 12 253 0.0 3.2 0.00 0.20 0.00 91 1008.8